When you browse on this site, cookies collect data to enhance your experience and personalize the content and advertising you see.
Visit our Privacy Policy to learn more. By continuing to use the site, you agree to this use of cookies and data.

Meteo pe oră la Emona

Astăzi, 8 Iulie, Miercuri

Timp Temperatura Precipitaţii Vânt Presiune Umiditate
00:00 +19°C° 0.2 mm 5 m/s 757 mmHg 83%
01:00 +17°C° 0.2 mm 6 m/s 758 mmHg 84%
02:00 +17°C° 0 mm 6 m/s 758 mmHg 86%
03:00 +17°C° 0.1 mm 6 m/s 758 mmHg 86%
04:00 +16°C° 0.1 mm 5 m/s 758 mmHg 85%
05:00 +16°C° 0.1 mm 5 m/s 759 mmHg 85%
06:00 +17°C° 0 mm 5 m/s 759 mmHg 79%
07:00 +19°C° 0 mm 5 m/s 760 mmHg 73%
08:00 +20°C° 0 mm 6 m/s 760 mmHg 67%
09:00 +21°C° 0 mm 5 m/s 761 mmHg 62%
10:00 +23°C° 0 mm 5 m/s 761 mmHg 58%
11:00 +25°C° 0 mm 5 m/s 761 mmHg 53%
12:00 +26°C° 0 mm 5 m/s 761 mmHg 51%
13:00 +27°C° 0 mm 5 m/s 761 mmHg 49%
14:00 +27°C° 0 mm 5 m/s 761 mmHg 48%
15:00 +27°C° 0 mm 4 m/s 761 mmHg 49%
16:00 +27°C° 0 mm 4 m/s 761 mmHg 50%
17:00 +27°C° 0 mm 4 m/s 761 mmHg 51%
18:00 +25°C° 0 mm 3 m/s 761 mmHg 56%
19:00 +22°C° 0 mm 3 m/s 761 mmHg 61%
20:00 +21°C° 0 mm 3 m/s 762 mmHg 66%
21:00 +20°C° 0 mm 2 m/s 762 mmHg 68%
22:00 +19°C° 0 mm 2 m/s 762 mmHg 69%
23:00 +20°C° 0 mm 1 m/s 762 mmHg 71%

Mâine, 9 Iulie, Joi

Timp Temperatura Precipitaţii Vânt Presiune Umiditate
00:00 +19°C° 0 mm 1 m/s 762 mmHg 71%
01:00 +18°C° 0 mm 2 m/s 762 mmHg 71%
02:00 +18°C° 0 mm 2 m/s 762 mmHg 71%
03:00 +18°C° 0 mm 2 m/s 762 mmHg 73%
04:00 +17°C° 0 mm 2 m/s 762 mmHg 74%
05:00 +17°C° 0 mm 2 m/s 762 mmHg 76%
06:00 +19°C° 0 mm 2 m/s 762 mmHg 70%
07:00 +21°C° 0 mm 2 m/s 763 mmHg 64%
08:00 +24°C° 0 mm 2 m/s 763 mmHg 58%
09:00 +26°C° 0 mm 3 m/s 763 mmHg 54%
10:00 +27°C° 0 mm 3 m/s 763 mmHg 50%
11:00 +28°C° 0 mm 4 m/s 763 mmHg 47%
12:00 +28°C° 0 mm 4 m/s 763 mmHg 46%
13:00 +29°C° 0 mm 5 m/s 763 mmHg 46%
14:00 +29°C° 0 mm 5 m/s 762 mmHg 45%
15:00 +29°C° 0 mm 5 m/s 762 mmHg 47%
16:00 +28°C° 0 mm 5 m/s 762 mmHg 49%
17:00 +27°C° 0 mm 5 m/s 762 mmHg 51%
18:00 +26°C° 0 mm 4 m/s 762 mmHg 59%
19:00 +24°C° 0 mm 3 m/s 762 mmHg 67%
20:00 +21°C° 0 mm 2 m/s 762 mmHg 75%
21:00 +21°C° 0 mm 2 m/s 762 mmHg 77%
22:00 +20°C° 0 mm 2 m/s 763 mmHg 79%
23:00 +20°C° 0 mm 1 m/s 763 mmHg 82%

Poimâine, 10 Iulie, Vineri

Timp Temperatura Precipitaţii Vânt Presiune Umiditate
00:00 +20°C° 0 mm 1 m/s 763 mmHg 82%
01:00 +20°C° 0 mm 1 m/s 762 mmHg 82%
02:00 +20°C° 0 mm 1 m/s 762 mmHg 83%
03:00 +19°C° 0 mm 2 m/s 762 mmHg 83%
04:00 +19°C° 0 mm 2 m/s 762 mmHg 84%
05:00 +18°C° 0 mm 2 m/s 762 mmHg 84%
06:00 +21°C° 0 mm 3 m/s 762 mmHg 78%
07:00 +23°C° 0 mm 4 m/s 762 mmHg 71%
08:00 +26°C° 0 mm 5 m/s 762 mmHg 64%
09:00 +27°C° 0 mm 5 m/s 762 mmHg 60%
10:00 +28°C° 0 mm 6 m/s 762 mmHg 55%
11:00 +29°C° 0 mm 6 m/s 762 mmHg 50%
12:00 +29°C° 0 mm 6 m/s 762 mmHg 51%
13:00 +29°C° 0 mm 6 m/s 762 mmHg 51%
14:00 +29°C° 0 mm 6 m/s 762 mmHg 51%
15:00 +29°C° 0 mm 6 m/s 762 mmHg 53%
16:00 +29°C° 0 mm 6 m/s 761 mmHg 54%
17:00 +28°C° 0 mm 6 m/s 761 mmHg 55%
18:00 +27°C° 0 mm 6 m/s 761 mmHg 62%
19:00 +25°C° 0 mm 5 m/s 762 mmHg 69%
20:00 +23°C° 0 mm 4 m/s 762 mmHg 76%
21:00 +22°C° 0 mm 4 m/s 762 mmHg 79%
22:00 +22°C° 0 mm 4 m/s 762 mmHg 81%
23:00 +21°C° 0 mm 4 m/s 762 mmHg 84%

11 Iulie, Sâmbătă

Timp Temperatura Precipitaţii Vânt Presiune Umiditate
00:00 +21°C° 0 mm 4 m/s 762 mmHg 84%
01:00 +21°C° 0 mm 4 m/s 761 mmHg 85%
02:00 +20°C° 0 mm 3 m/s 761 mmHg 85%
03:00 +20°C° 0 mm 3 m/s 761 mmHg 86%
04:00 +20°C° 0 mm 3 m/s 761 mmHg 87%
05:00 +20°C° 0 mm 3 m/s 760 mmHg 88%
06:00 +22°C° 0 mm 4 m/s 760 mmHg 82%
07:00 +25°C° 0 mm 4 m/s 761 mmHg 76%
08:00 +27°C° 0 mm 4 m/s 761 mmHg 70%
09:00 +28°C° 0.1 mm 5 m/s 760 mmHg 65%
10:00 +29°C° 0.1 mm 6 m/s 760 mmHg 61%
11:00 +30°C° 0.1 mm 6 m/s 760 mmHg 56%
12:00 +30°C° 0 mm 6 m/s 760 mmHg 55%
13:00 +30°C° 0 mm 6 m/s 760 mmHg 53%
14:00 +30°C° 0 mm 6 m/s 759 mmHg 52%
15:00 +30°C° 0 mm 6 m/s 759 mmHg 54%
16:00 +29°C° 0 mm 6 m/s 759 mmHg 56%
17:00 +29°C° 0 mm 6 m/s 759 mmHg 58%
18:00 +27°C° 0 mm 5 m/s 759 mmHg 66%
19:00 +25°C° 0 mm 4 m/s 759 mmHg 73%
20:00 +24°C° 0 mm 3 m/s 759 mmHg 80%
21:00 +22°C° 0 mm 3 m/s 759 mmHg 83%
22:00 +22°C° 0 mm 3 m/s 759 mmHg 86%
23:00 +21°C° 0 mm 2 m/s 759 mmHg 89%

12 Iulie, Duminică

Timp Temperatura Precipitaţii Vânt Presiune Umiditate
00:00 +21°C° 0 mm 2 m/s 759 mmHg 89%
01:00 +20°C° 0 mm 2 m/s 759 mmHg 90%
02:00 +20°C° 0 mm 2 m/s 758 mmHg 91%
03:00 +20°C° 0 mm 2 m/s 758 mmHg 91%
04:00 +20°C° 0 mm 2 m/s 758 mmHg 92%
05:00 +19°C° 0 mm 2 m/s 758 mmHg 92%
06:00 +21°C° 0 mm 2 m/s 758 mmHg 84%
07:00 +24°C° 0 mm 2 m/s 758 mmHg 77%
08:00 +26°C° 0 mm 2 m/s 759 mmHg 69%
09:00 +27°C° 0 mm 2 m/s 759 mmHg 61%
10:00 +29°C° 0 mm 2 m/s 759 mmHg 52%
11:00 +30°C° 0 mm 3 m/s 759 mmHg 44%
12:00 +31°C° 0 mm 3 m/s 759 mmHg 42%
13:00 +33°C° 0 mm 3 m/s 758 mmHg 39%
14:00 +34°C° 0 mm 4 m/s 758 mmHg 37%
15:00 +33°C° 0 mm 3 m/s 758 mmHg 39%
16:00 +33°C° 0 mm 3 m/s 758 mmHg 42%
17:00 +31°C° 0 mm 3 m/s 758 mmHg 45%
18:00 +29°C° 0 mm 2 m/s 758 mmHg 52%
19:00 +27°C° 0 mm 2 m/s 758 mmHg 60%
20:00 +25°C° 0 mm 1 m/s 758 mmHg 68%
21:00 +25°C° 0 mm 2 m/s 759 mmHg 68%
22:00 +25°C° 0 mm 3 m/s 759 mmHg 69%
23:00 +23°C° 0 mm 4 m/s 759 mmHg 70%

13 Iulie, Luni

Timp Temperatura Precipitaţii Vânt Presiune Umiditate
00:00 +22°C° 0 mm 4 m/s 759 mmHg 75%
01:00 +21°C° 0 mm 5 m/s 759 mmHg 80%
02:00 +20°C° 0 mm 6 m/s 759 mmHg 85%
03:00 +20°C° 0 mm 5 m/s 760 mmHg 84%
04:00 +19°C° 0 mm 5 m/s 760 mmHg 83%
05:00 +17°C° 0 mm 5 m/s 760 mmHg 83%
06:00 +19°C° 0 mm 5 m/s 760 mmHg 79%
07:00 +19°C° 0 mm 5 m/s 760 mmHg 75%
08:00 +20°C° 0 mm 6 m/s 761 mmHg 72%
09:00 +21°C° 0 mm 6 m/s 761 mmHg 66%
10:00 +22°C° 0 mm 6 m/s 761 mmHg 60%
11:00 +24°C° 0 mm 6 m/s 761 mmHg 54%
12:00 +24°C° 0 mm 6 m/s 761 mmHg 52%
13:00 +26°C° 0 mm 6 m/s 761 mmHg 49%
14:00 +27°C° 0 mm 7 m/s 761 mmHg 46%
15:00 +27°C° 0 mm 6 m/s 761 mmHg 46%
16:00 +27°C° 0 mm 6 m/s 761 mmHg 46%
17:00 +27°C° 0 mm 5 m/s 761 mmHg 45%
18:00 +25°C° 0 mm 5 m/s 761 mmHg 50%
19:00 +23°C° 0 mm 4 m/s 761 mmHg 56%
20:00 +21°C° 0 mm 3 m/s 761 mmHg 61%
21:00 +20°C° 0 mm 4 m/s 761 mmHg 64%
22:00 +20°C° 0 mm 4 m/s 762 mmHg 67%
23:00 +19°C° 0 mm 4 m/s 762 mmHg 70%
Arată mai mult